User: anonymous   Login
Location: Caltech
(34.1382°N, 118.1253°W)
Time: 03:40:13
(UTC-07:00)
Language:

Cosmos 1980 Rocket - Orbit

View from above orbital plane
View from above orbital plane
View from above satellite
View from above satellite

Ground track
Ground track

The orbit data is extracted from the following two-line orbital elements,

1 19650U 88102B   16176.07057235 -.00000284  00000-0 -12039-3 0  9994
2 19650  71.0002  48.1075 0014223 358.7512   1.3573 14.15741613425307
Epoch (UTC): 24 June 2016 01:41:37
Eccentricity: 0.0014223
inclination: 71.0002°
perigee height: 829 km
apogee height: 850 km
right ascension of ascending node: 48.1075°
argument of perigee: 358.7512°
revolutions per day: 14.15741613
mean anomaly at epoch: 1.3573°
orbit number at epoch: 42530

The dashed part of the orbit path shows where the satellite is in the earth's shadow,  

DLR